Aeroporto :
LOGIN :

Iscrizione | Disclaimer

   EN    FR    IT 

 










Sommario :    VFR   VFR Marginale   IFR   IFR Intensivo   IFR Molto Intensivo
Visibilità : 
Base nubi : 
>= 8 km
>= 3000ft
5 / 8 km
1000 / 3000 ft
1500m / 5 km
500 / 1000 ft
800 / 1500m
200 / 500 ft
< 800m
< 200 ft
Simboli :   Temporali  Nebbia  Neve Forte  Precipitazioni Forti  Vento > 20 kt
SIGMETs :   Varie  Temporali  Ghiacco  Turbolenza  Onda orograficha  Ceneri Vulcaniche






- Altitudine del aeroporto : 1043 ft
- Codice IATA : SLD


LZSL - Sliac

ULTIMO METAR :
  • 140030Z 00000KT CAVOK 18/15 Q1016

METARs OBSOLETI :
  • 140000Z VRB01KT CAVOK 18/15 Q1016
  • 132330Z VRB02KT CAVOK 18/16 Q1016
  • 132300Z 00000KT CAVOK 19/16 Q1016
  • 132230Z 00000KT CAVOK 19/16 Q1016
  • 132200Z VRB01KT CAVOK 19/15 Q1016
  • 132130Z 00000KT CAVOK 19/15 Q1016

TAF TAF LZSL
Valido dal 14 a 00 ore il 14 a 09 ore UTC


132300Z 1400/1409 VRB02KT CAVOK



MetMap, La meteo Aeronautica in un colpo d'occhio ! - Copyright ORBIFLY Dicembre 2007 - Disclaimer

ORBIFLY MET'MAP TEAM :

Programmazione e sviluppo : Alexandra Zaïnal
Concezione : Baudouin d'Aumeries
Aiuto per la programmazione : Marc-Olivier Méhu
Supporto tecnico e logistico : Manuel Goepfert
Aiuto per la traduzione : Arnaldo La Scala

Contatto : metmap@orbifly.com




FONTI E CREDITI :

   NOAA